Location: Poughquag
(41.6090°N, 73.6820°W)
Time: 21:39:27
(UTC-05:00)

N. Korean satellite - Pass Details

Date: 29 January 2021
Orbit: 451 x 503 km, 97.2° (Epoch: 24 February)

Event Time Altitude Azimuth Distance (km) Brightness Sun altitude
Rises 05:47:34 0° 4° (N) 2,490 10.1 -15.4°
Reaches altitude 10° 05:49:42 10° 356° (N) 1,604 9.0 -15.0°
Maximum altitude 05:52:55 39° 287° (WNW) 696 6.8 -14.4°
Drops below altitude 10° 05:56:05 10° 217° (SW) 1,580 8.9 -13.9°
Sets 05:58:11 0° 209° (SSW) 2,445 10.0 -13.5°
